Location: Aalen
(48.8330°N, 10.1000°E)
Time: 08:41:01
(UTC+02:00)

Transit 2A - Pass Details

Date: 31 July 2021
Orbit: 594 x 964 km, 66.7° (Epoch: 24 September)

Event Time Altitude Azimuth Distance (km) Brightness Sun altitude
Rises 14:45:35 0° 327° (NNW) 3,148 9.0 55.3°
Reaches altitude 10° 14:48:08 10° 338° (NNW) 2,285 8.4 55.1°
Maximum altitude 14:52:46 30° 40° (NE) 1,404 7.4 54.6°
Drops below altitude 10° 14:57:48 10° 101° (E) 2,498 8.6 54.1°
Sets 15:00:42 0° 112° (ESE) 3,491 9.3 53.8°
